DW1482 Weather Reports


Display with metric or nautical units.
time (UTC)temp
F
wind
direction
speed
MPH
gust
MPH
rain 1hr
in
rain 24hr
in
rain mn
in
humidity
%
barometer
mb
20260905091531 71 124 0.0 0.0 0.01 0.01 0.01 89 1012.6
20260905090008 71 124 0.0 0.0 0.01 0.01 0.01 88 1012.0
20260905084514 72 124 0.0 3.0 0.01 0.01 0.01 87 1011.5
20260905083018 72 140 0.0 2.0 0.00 0.00 0.00 86 1011.7
20260905081528 72 140 0.0 0.0 0.00 0.00 0.00 85 1011.8
20260905080023 72 140 0.0 0.0 0.00 0.00 0.00 85 1012.0
20260905074516 72 140 0.0 3.0 0.00 0.00 0.00 85 1011.8
20260905073026 72 140 0.0 2.0 0.00 0.00 0.00 84 1012.0
20260905071531 72 140 0.0 3.0 0.00 0.00 0.00 83 1012.1
20260905070012 73 136 1.0 3.0 0.00 0.00 0.00 82 1011.6
20260905064518 73 98 0.0 1.0 0.00 0.00 0.00 81 1011.7
20260905063026 73 94 0.0 0.0 0.00 0.00 0.00 80 1012.3
20260905061528 73 77 0.0 3.0 0.00 0.00 0.00 80 1012.8
20260905060044 74 77 0.0 2.0 0.00 0.00 0.00 79 1012.8
20260905054523 74 77 0.0 2.0 0.00 0.00 0.00 79 1013.0
20260905053025 74 85 1.0 3.0 0.00 0.00 0.00 79 1012.7
20260905051530 74 99 0.0 0.0 0.00 0.00 0.00 78 1012.7
20260905050030 74 101 0.0 4.0 0.00 0.00 0.00 77 1012.5
20260905044532 75 138 0.0 4.0 0.00 0.00 0.00 77 1012.9
20260905043029 75 96 0.0 3.0 0.00 0.00 0.00 77 1012.8
20260905041531 75 80 0.0 5.0 0.00 0.00 0.00 77 1012.5
20260905040041 76 59 1.0 9.0 0.00 0.00 0.00 76 1012.7
20260905034522 76 115 0.0 1.0 0.00 0.00 0.00 75 1013.0
20260905033004 76 90 1.0 13.0 0.00 0.00 0.00 74 1012.4
20260905031509 76 129 0.0 9.0 0.00 0.00 0.00 74 1012.3
20260905030018 76 68 0.0 11.0 0.00 0.00 0.00 74 1012.3
20260905024524 77 103 0.0 8.0 0.00 0.00 0.00 72 1012.5
20260905023003 77 78 0.0 8.0 0.00 0.00 0.00 71 1012.7
20260905021517 77 120 1.0 9.0 0.00 0.00 0.00 70 1012.5
20260905020016 78 109 3.0 10.0 0.00 0.00 0.00 69 1012.3
20260905014525 78 65 1.0 4.0 0.00 0.00 0.00 69 1012.3
20260905013030 78 138 0.0 7.0 0.00 0.00 0.00 68 1011.8
20260905011511 79 140 2.0 9.0 0.00 0.00 0.00 66 1011.3
20260905010023 80 141 2.0 9.0 0.00 0.00 0.00 65 1011.6
20260905004533 80 42 1.0 9.0 0.00 0.00 0.00 62 1011.6
20260905003040 80 90 4.0 10.0 0.00 0.00 0.00 64 1010.9
20260905001513 80 100 4.0 11.0 0.00 0.00 0.00 66 1010.5
20260905000022 81 90 3.0 9.0 0.00 0.00 0.00 64 1010.9
20260904234530 81 142 0.0 9.0 0.00 0.00 0.00 63 1011.6
20260904233049 81 141 1.0 8.0 0.00 0.00 0.00 63 1010.9
20260904231520 82 141 2.0 9.0 0.00 0.00 0.00 58 1011.2
20260904230037 83 148 3.0 12.0 0.00 0.00 0.00 56 1011.2
20260904224526 84 114 3.0 10.0 0.00 0.00 0.00 57 1011.1
20260904223036 85 58 3.0 8.0 0.00 0.00 0.00 54 1012.3
20260904221516 87 124 2.0 9.0 0.00 0.00 0.00 53 1012.0
20260904220026 87 166 4.0 12.0 0.00 0.00 0.00 53 1011.4
20260904214530 86 97 4.0 9.0 0.00 0.00 0.00 52 1011.6
20260904213030 87 121 2.0 10.0 0.00 0.00 0.00 54 1012.1
20260904211536 88 112 5.0 16.0 0.00 0.00 0.00 51 1011.8
20260904210028 88 69 6.0 14.0 0.00 0.00 0.00 48 1011.5
20260904204532 87 163 8.0 16.0 0.00 0.00 0.00 54 1011.3
20260904203040 87 55 7.0 15.0 0.00 0.00 0.00 59 1011.7
20260904201537 86 107 3.0 11.0 0.00 0.00 0.00 62 1012.2
20260904200031 86 78 3.0 12.0 0.00 0.00 0.00 63 1012.5
20260904194531 86 98 2.0 6.0 0.00 0.00 0.00 63 1012.7
20260904193035 85 109 2.0 7.0 0.00 0.00 0.00 65 1012.9
20260904191537 84 67 1.0 6.0 0.00 0.00 0.00 67 1013.2
20260904190030 83 119 2.0 7.0 0.00 0.00 0.00 67 1013.2
20260904184511 83 87 2.0 6.0 0.00 0.00 0.00 66 1013.1
20260904183014 82 115 1.0 7.0 0.00 0.00 0.00 69 1013.3
20260904181514 81 114 0.0 6.0 0.00 0.00 0.00 71 1013.3
20260904180016 80 80 0.0 9.0 0.00 0.00 0.00 74 1013.2
20260904174519 78 132 2.0 8.0 0.00 0.00 0.00 74 1013.2
20260904173020 77 101 2.0 7.0 0.00 0.00 0.00 74 1013.2
20260904171530 76 30 2.0 8.0 0.00 0.00 0.00 76 1013.1
20260904170024 75 53 1.0 8.0 0.00 0.00 0.00 77 1013.2
20260904164523 73 67 3.0 11.0 0.00 0.00 0.00 80 1013.3
20260904163022 71 69 4.0 9.0 0.00 0.00 0.00 81 1013.3
20260904161522 71 83 2.0 7.0 0.00 0.00 0.00 84 1013.3
20260904160034 69 90 3.0 8.0 0.00 0.00 0.00 85 1013.3
20260904154526 67 75 1.0 5.0 0.00 0.00 0.00 88 1013.3
20260904153026 65 73 1.0 8.0 0.00 0.00 0.00 92 1013.1
20260904151527 64 84 2.0 6.0 0.00 0.00 0.00 94 1013.0
20260904150039 64 77 1.0 6.0 0.00 0.00 0.00 94 1013.0
20260904144529 63 79 0.0 0.0 0.00 0.00 0.00 94 1013.0
20260904143031 63 74 2.0 6.0 0.00 0.00 0.00 94 1012.8
20260904141534 62 49 3.0 7.0 0.00 0.00 0.00 94 1012.4
20260904140031 62 59 2.0 7.0 0.00 0.00 0.00 94 1012.4
20260904134530 61 79 2.0 8.0 0.00 0.00 0.00 94 1012.2
20260904133030 61 74 3.0 8.0 0.00 0.00 0.00 94 1012.1
20260904131528 60 59 1.0 8.0 0.00 0.00 0.00 93 1012.2
20260904130030 60 51 3.0 9.0 0.00 0.00 0.00 93 1012.0
20260904124517 61 51 4.0 10.0 0.00 0.00 0.00 93 1011.9
20260904123002 60 65 2.0 5.0 0.00 0.00 0.00 93 1011.7
20260904121508 60 55 2.0 7.0 0.00 0.00 0.00 93 1011.7
20260904120017 60 25 1.0 11.0 0.00 0.00 0.00 92 1011.6
20260904114527 60 17 5.0 11.0 0.00 0.00 0.00 92 1011.6
20260904113006 60 30 2.0 5.0 0.00 0.00 0.00 92 1011.5
20260904111512 60 27 2.0 6.0 0.00 0.00 0.00 92 1011.3
20260904110023 60 24 1.0 4.0 0.00 0.00 0.00 91 1011.3
20260904104527 60 19 2.0 5.0 0.00 0.00 0.00 91 1011.3
20260904103037 61 49 0.0 4.0 0.00 0.00 0.00 91 1011.2
20260904101512 61 37 2.0 6.0 0.00 0.00 0.00 91 1011.0
20260904100020 61 40 0.0 5.0 0.00 0.00 0.00 91 1010.9
20260904094533 61 48 1.0 3.0 0.00 0.00 0.00 90 1010.7
20260904093033 62 47 2.0 5.0 0.00 0.00 0.00 90 1010.7